[[{"header":{"parameterUnit":"m.s-1","parameterCategory":1,"la1":30.2991,"la2":30.254,"lo1":-89.0895,"lo2":-89.0444,"dy":0.0017,"dx":0.0017,"nx":28,"ny":28,"refTime":"2024-12-19T03:00:00:Z","depth":0,"parameterNumber":2,"parameterNumberName":"U-component_of_WINDS"},"data":[0,0,0,0,0,0,0,0,0,0,0,0,0,0,0,0,0,0,0,0,0,0,0,0,0,0,0,0,0,0,0,0,0,0,0,0,0,0,0,0,0,0,0,0,0,0,0,0,0,0,0,0,0,0,0,0,0,0,1.7177,1.7177,0,1.7249,1.725,1.7251,1.7201,1.7198,1.7196,1.7194,1.7271,1.7275,1.7279,0,0,0,0,0,0,0,0,0,0,0,0,0,1.6997,1.7,1.7177,1.7177,1.7178,1.7249,1.725,1.7251,1.7201,1.7198,1.7196,1.7193,1.7269,1.7274,1.7279,0,0,0,0,0,0,0,0,0,0,0,0,0,1.7073,1.7002,1.7176,1.7162,1.7161,1.7249,1.725,1.7251,1.7202,1.7198,1.7195,1.7192,1.7268,1.7274,1.728,1.7386,0,0,1.7299,1.7302,0,0,0,0,0,0,0,0,1.7068,1.7079,1.7163,1.7163,1.7163,1.7212,1.7215,1.7297,1.7203,1.7187,1.7194,1.719,1.7254,1.7261,1.7283,1.739,1.7393,1.73,1.7303,1.7306,1.7308,0,0,0,0,0,0,0,1.7063,1.7076,1.7205,1.7164,1.7164,1.7152,1.7159,1.723,1.7239,1.7188,1.7184,1.7193,1.7253,1.7277,1.7284,1.7394,1.7299,1.7305,1.7309,1.7311,1.7592,1.7595,0,0,0,0,0,0,1.7059,1.7072,1.7203,1.7207,1.7106,1.7158,1.7166,1.72,1.7238,1.724,1.7196,1.7191,1.7268,1.7277,1.7286,1.7413,1.7306,1.7312,1.7315,1.7588,1.7592,1.7596,0,0,0,0,0,0,1.7055,1.7071,1.72,1.7139,1.7154,1.7165,1.7203,1.7203,1.7226,1.7244,1.7246,1.7218,1.7265,1.7278,1.7361,1.7415,1.7315,1.732,1.7584,1.7589,1.7594,1.7667,0,0,0,0,0,0,1.705,1.707,1.711,1.714,1.7158,1.7274,1.7206,1.7207,1.7237,1.723,1.7265,1.7268,1.7264,1.7352,1.7368,1.7422,1.7325,1.7579,1.7586,1.7593,1.766,1.7674,1.7687,0,0,0,0,0,1.7044,1.7129,1.7113,1.7129,1.7208,1.7277,1.7287,1.728,1.7241,1.7282,1.7293,1.7267,1.7406,1.7361,1.7378,1.7435,1.7575,1.7584,1.7592,1.7654,1.7671,1.7686,0,0,0,0,0,0,1.7107,1.7132,1.7115,1.7211,1.7242,1.7268,1.732,1.7299,1.7342,1.7335,1.7325,1.7333,1.7421,1.7436,1.7385,1.7539,1.7485,1.7497,1.7526,1.7543,1.7556,1.7551,1.733,0,0,0,0,0,1.7131,1.7184,1.7204,1.7288,1.7304,1.7309,1.7339,1.733,1.7362,1.7375,1.7393,1.7425,1.7476,1.751,1.7558,1.7661,1.7668,1.7709,1.7722,1.7733,1.7744,1.7798,1.7816,1.7624,1.7624,1.7624,0,0,1.7184,1.7204,1.7238,1.7301,1.7323,1.7379,1.732,1.7382,1.7423,1.7385,1.7465,1.7479,1.7514,1.7608,1.765,1.7623,1.7798,1.7743,1.7752,1.7757,1.7809,1.7827,1.7843,1.7629,1.7628,1.7628,0,0,1.7307,1.7328,1.7399,1.7423,1.7457,1.746,1.7477,1.7506,1.7514,1.7593,1.7566,1.7615,1.7703,1.7729,1.7754,1.7886,1.7863,1.7902,1.7972,1.8026,1.8041,1.8054,1.8101,1.8118,1.7912,1.7912,1.7913,0,1.7368,1.7449,1.7439,1.7502,1.753,1.7496,1.7569,1.7592,1.7642,1.7662,1.7631,1.774,1.7762,1.7861,1.7893,1.7914,1.7933,1.7898,1.8039,1.8053,1.8065,1.8109,1.8127,1.7917,1.7916,1.7916,1.7916,0,1.7522,1.7579,1.7633,1.768,1.7714,1.7782,1.7781,1.7817,1.7805,1.7811,1.7893,1.7917,1.7969,1.7992,1.7982,1.8089,1.8071,1.804,1.7985,1.8088,1.8129,1.8146,1.7923,1.7922,1.792,1.7919,0,0,1.7688,1.7727,1.7747,1.7767,1.7803,1.7847,1.7913,1.7962,1.7993,1.8028,1.8083,1.8157,1.8128,1.8157,1.8149,1.8196,1.8298,1.8159,1.8159,1.8183,1.8417,1.844,1.846,1.8282,1.8285,1.8288,1.8414,0,1.7814,1.7927,1.7919,1.8026,1.8079,1.8047,1.8104,1.8132,1.8139,1.8185,1.8193,1.8246,1.8204,1.822,1.8265,1.8276,1.8345,1.8267,1.8333,1.8336,1.8326,1.8482,1.8507,1.8624,1.843,1.8433,1.8435,0,1.7975,1.8014,1.8127,1.8153,1.8174,1.8226,1.827,1.8314,1.8345,1.8347,1.8377,1.8361,1.8428,1.8371,1.8462,1.8409,1.8435,1.8445,1.8449,1.8455,1.8392,1.8492,1.8662,1.8679,1.846,1.8458,1.8456,0,1.8085,1.8165,1.8243,1.8261,1.8294,1.8331,1.8346,1.8373,1.8403,1.8442,1.8461,1.8508,1.8533,1.8569,1.8566,1.8525,1.8659,1.8602,1.8662,1.8662,1.8692,1.869,1.8868,1.8709,1.8709,1.8709,1.8708,0,1.8226,1.8296,1.8292,1.834,1.8417,1.8407,1.8484,1.8495,1.8519,1.8568,1.8544,1.8591,1.8584,1.8631,1.8629,1.8704,1.8716,1.8719,1.8718,1.8721,1.8721,1.8739,1.8731,1.8713,1.8712,1.8711,1.871,0,1.8362,1.8362,1.8444,1.8468,1.8475,1.8531,1.8551,1.8596,1.86,1.8663,1.8677,1.8684,1.8738,1.8738,1.88,1.8799,1.8891,1.888,1.888,1.8878,1.8938,1.8932,1.9134,1.916,1.8984,1.8986,1.8987,0,1.8452,1.8505,1.8533,1.8564,1.8581,1.8632,1.8661,1.8653,1.8685,1.8723,1.8764,1.8815,1.8855,1.8943,1.8954,1.9001,1.8991,1.9058,1.8998,1.8999,1.8992,1.8988,1.8993,1.907,1.9072,1.9074,1.9075,0,1.8612,1.8609,1.8653,1.8696,1.8733,1.8767,1.8798,1.8825,1.882,1.8857,1.8911,1.8943,1.9005,1.9056,1.9101,1.9117,1.9096,1.9094,1.911,1.9115,1.9112,1.9114,1.8912,1.909,1.9088,1.9087,1.9086,1.9086,1.8728,1.8773,1.8799,1.8849,1.8871,1.8901,1.8944,1.8952,1.8997,1.9047,1.9039,1.9099,1.9127,1.9185,1.9205,1.9252,1.9228,1.9252,1.9258,1.9264,1.927,1.9105,1.926,1.9259,1.9259,1.9259,1.9258,0,1.8886,1.8901,1.8946,1.899,1.9029,1.9004,1.9037,1.9071,1.9124,1.9152,1.9192,1.9253,1.9302,1.9316,1.9363,1.9398,1.939,1.9411,1.9408,1.9412,1.9289,1.927,1.9417,1.9417,1.9417,1.9417,1.9417,1.9417,1.8973,1.9047,1.9047,1.9133,1.9147,1.9205,1.9226,1.9253,1.9275,1.9345,1.9385,1.9393,1.9415,1.9463,1.9507,1.951,1.9528,1.9553,1.9552,1.9437,1.9421,1.9406,1.9388,1.9558,1.9558,1.9671,1.9673,1.9673]},{"header":{"parameterUnit":"m.s-1","parameterCategory":1,"la1":30.2991,"la2":30.254,"lo1":-89.0895,"lo2":-89.0444,"dy":0.0017,"dx":0.0017,"nx":28,"ny":28,"refTime":"2024-12-19T03:00:00:Z","depth":0,"parameterNumber":3,"parameterNumberName":"V-component_of_WINDS"},"data":[0,0,0,0,0,0,0,0,0,0,0,0,0,0,0,0,0,0,0,0,0,0,0,0,0,0,0,0,0,0,0,0,0,0,0,0,0,0,0,0,0,0,0,0,0,0,0,0,0,0,0,0,0,0,0,0,0,0,-0.4579,-0.4576,0,-0.4306,-0.4303,-0.43,-0.4256,-0.4259,-0.4261,-0.4264,-0.3974,-0.3965,-0.3955,0,0,0,0,0,0,0,0,0,0,0,0,0,-0.5053,-0.5044,-0.4579,-0.4575,-0.4572,-0.4306,-0.4303,-0.4299,-0.4256,-0.4259,-0.4262,-0.4265,-0.3978,-0.3966,-0.3954,0,0,0,0,0,0,0,0,0,0,0,0,0,-0.482,-0.5042,-0.4579,-0.4519,-0.4511,-0.4307,-0.4302,-0.4298,-0.4255,-0.4259,-0.4263,-0.4266,-0.3981,-0.3967,-0.3952,-0.3787,0,0,-0.3907,-0.39,0,0,0,0,0,0,0,0,-0.4833,-0.4802,-0.4531,-0.4523,-0.4513,-0.4319,-0.4363,-0.4126,-0.4254,-0.4352,-0.4264,-0.4268,-0.4085,-0.4062,-0.4003,-0.3773,-0.3761,-0.3905,-0.3896,-0.389,-0.3885,0,0,0,0,0,0,0,-0.4849,-0.4814,-0.447,-0.4527,-0.4516,-0.4502,-0.4473,-0.4318,-0.4201,-0.4344,-0.434,-0.4309,-0.4081,-0.4017,-0.3995,-0.3757,-0.3906,-0.3892,-0.3883,-0.3877,-0.3374,-0.337,0,0,0,0,0,0,-0.4878,-0.4828,-0.4479,-0.4462,-0.4686,-0.4491,-0.4458,-0.4378,-0.4203,-0.418,-0.4306,-0.4308,-0.4041,-0.4013,-0.3985,-0.3777,-0.389,-0.3876,-0.3867,-0.3379,-0.3374,-0.3369,0,0,0,0,0,0,-0.4888,-0.4847,-0.449,-0.4644,-0.4597,-0.4479,-0.4388,-0.437,-0.4306,-0.4174,-0.4152,-0.4263,-0.4043,-0.4006,-0.3836,-0.3767,-0.3869,-0.3855,-0.3384,-0.3377,-0.3371,-0.3362,0,0,0,0,0,0,-0.4902,-0.4851,-0.479,-0.4643,-0.459,-0.4349,-0.4384,-0.4362,-0.4282,-0.4282,-0.4128,-0.4106,-0.4043,-0.3859,-0.3822,-0.3748,-0.3844,-0.339,-0.3381,-0.3373,-0.3368,-0.3356,-0.3346,0,0,0,0,0,-0.4919,-0.4796,-0.4787,-0.4745,-0.451,-0.4345,-0.4314,-0.4247,-0.4277,-0.4211,-0.4127,-0.4111,-0.3782,-0.3842,-0.3799,-0.372,-0.3394,-0.3383,-0.3374,-0.3373,-0.3359,-0.3346,0,0,0,0,0,0,-0.4934,-0.4776,-0.4763,-0.4591,-0.4482,-0.4338,-0.4254,-0.4234,-0.4112,-0.4116,-0.4035,-0.4001,-0.3834,-0.3761,-0.3831,-0.355,-0.3589,-0.3571,-0.3604,-0.3589,-0.3578,-0.3597,-0.3831,0,0,0,0,0,-0.4919,-0.4801,-0.4668,-0.4527,-0.4474,-0.4374,-0.4299,-0.4257,-0.414,-0.4093,-0.3995,-0.388,-0.375,-0.3666,-0.3539,-0.3359,-0.3322,-0.3283,-0.3272,-0.3264,-0.3247,-0.3143,-0.3123,-0.3336,-0.3336,-0.3337,0,0,-0.4883,-0.4782,-0.4712,-0.4528,-0.4439,-0.4315,-0.4335,-0.4204,-0.411,-0.4072,-0.3905,-0.383,-0.3695,-0.3519,-0.3436,-0.3452,-0.3181,-0.3251,-0.3246,-0.3233,-0.3131,-0.3111,-0.3093,-0.333,-0.3331,-0.3332,0,0,-0.4754,-0.4667,-0.454,-0.4451,-0.4317,-0.4251,-0.4221,-0.4079,-0.4029,-0.3862,-0.383,-0.3716,-0.3495,-0.3399,-0.3322,-0.3157,-0.3136,-0.3118,-0.3058,-0.2958,-0.2941,-0.2926,-0.2863,-0.2843,-0.3102,-0.3102,-0.3102,0,-0.4725,-0.4541,-0.4476,-0.4346,-0.4264,-0.4228,-0.4095,-0.4011,-0.3841,-0.3784,-0.3806,-0.3527,-0.3434,-0.3233,-0.3193,-0.3133,-0.3092,-0.3133,-0.295,-0.2933,-0.2918,-0.2857,-0.2835,-0.3101,-0.3101,-0.3101,-0.3101,0,-0.451,-0.4382,-0.4295,-0.4135,-0.4044,-0.3913,-0.3826,-0.3741,-0.3707,-0.3638,-0.3466,-0.3354,-0.3203,-0.3153,-0.3117,-0.2946,-0.296,-0.2967,-0.3004,-0.2897,-0.2839,-0.2815,-0.3098,-0.3099,-0.3099,-0.31,0,0,-0.4381,-0.4188,-0.4156,-0.4082,-0.3932,-0.383,-0.3697,-0.3552,-0.3479,-0.3363,-0.3247,-0.3061,-0.3066,-0.2978,-0.2932,-0.2844,-0.2717,-0.2861,-0.2856,-0.2835,-0.2517,-0.2511,-0.2486,-0.2704,-0.27,-0.2696,-0.2528,0,-0.4231,-0.3996,-0.3933,-0.3731,-0.361,-0.3574,-0.3457,-0.3351,-0.3283,-0.3168,-0.3091,-0.296,-0.2979,-0.2925,-0.2837,-0.2751,-0.2651,-0.2763,-0.2591,-0.2585,-0.2622,-0.2456,-0.2448,-0.2295,-0.2505,-0.2501,-0.2498,0,-0.4025,-0.3907,-0.3694,-0.3558,-0.3505,-0.3402,-0.3263,-0.3155,-0.3032,-0.2989,-0.2891,-0.2853,-0.2709,-0.2758,-0.2556,-0.2633,-0.256,-0.2507,-0.2499,-0.2477,-0.2533,-0.2426,-0.2245,-0.222,-0.2462,-0.2465,-0.2468,0,-0.3948,-0.3736,-0.3581,-0.3519,-0.3357,-0.3285,-0.3213,-0.3095,-0.3011,-0.2889,-0.2833,-0.2696,-0.2619,-0.2512,-0.2436,-0.2479,-0.224,-0.2283,-0.2196,-0.2198,-0.2144,-0.2148,-0.1945,-0.2103,-0.2104,-0.2104,-0.2105,0,-0.3785,-0.3655,-0.3544,-0.3447,-0.33,-0.3229,-0.3084,-0.301,-0.2905,-0.2791,-0.2752,-0.2645,-0.2554,-0.2434,-0.2374,-0.2215,-0.2181,-0.2139,-0.2124,-0.214,-0.2145,-0.2088,-0.2095,-0.2098,-0.2099,-0.2101,-0.2102,0,-0.3672,-0.3593,-0.342,-0.3282,-0.3244,-0.3141,-0.3021,-0.2925,-0.2857,-0.2713,-0.2675,-0.2567,-0.2424,-0.2339,-0.2158,-0.2118,-0.194,-0.1931,-0.1982,-0.1974,-0.1892,-0.1899,-0.1642,-0.1603,-0.1791,-0.1789,-0.1788,0,-0.3572,-0.3471,-0.3323,-0.3246,-0.3174,-0.305,-0.2965,-0.2891,-0.2803,-0.2656,-0.2576,-0.2432,-0.2312,-0.2085,-0.1988,-0.1849,-0.1834,-0.1753,-0.1812,-0.1831,-0.1828,-0.1833,-0.1821,-0.1742,-0.174,-0.1739,-0.1738,0,-0.3401,-0.3367,-0.3248,-0.3114,-0.3015,-0.2905,-0.2796,-0.2734,-0.2641,-0.2544,-0.2399,-0.2307,-0.2123,-0.1978,-0.1831,-0.1754,-0.1728,-0.1721,-0.1693,-0.1706,-0.1739,-0.1717,-0.1951,-0.1726,-0.1727,-0.1728,-0.1729,-0.1729,-0.3288,-0.3196,-0.3078,-0.2945,-0.2856,-0.2755,-0.2657,-0.2578,-0.2456,-0.2303,-0.2266,-0.2113,-0.199,-0.1791,-0.171,-0.1587,-0.16,-0.156,-0.1549,-0.154,-0.1536,-0.1762,-0.1561,-0.1561,-0.1561,-0.1561,-0.1561,0,-0.3112,-0.3034,-0.2914,-0.2763,-0.2659,-0.2649,-0.2527,-0.2439,-0.2305,-0.2195,-0.2079,-0.1911,-0.1771,-0.1664,-0.152,-0.1442,-0.1426,-0.1406,-0.1409,-0.1391,-0.1534,-0.1572,-0.1421,-0.1421,-0.1421,-0.1421,-0.1421,-0.1421,-0.3008,-0.2851,-0.2803,-0.26,-0.2522,-0.2374,-0.2305,-0.221,-0.2122,-0.1937,-0.1822,-0.1754,-0.1643,-0.1491,-0.1361,-0.1333,-0.128,-0.1261,-0.123,-0.1366,-0.1381,-0.1395,-0.1429,-0.1251,-0.1251,-0.1096,-0.1095,-0.1094]}]]